Location: ???????
(54.6339°N, 39.4245°E)
Time: 14:13:52
(UTC+00:00)

Cosmos 158 Rocket - Pass Details

Date: 19 May 2025
Orbit: 694 x 787 km, 74.0° (Epoch: 20 June)

Event Time Altitude Azimuth Distance (km) Brightness Sun altitude
Rises 18:53:15 0° 208° (SSW) 3,241 7.0 -9.2°
Reaches altitude 10° 18:55:37 10° 210° (SSW) 2,327 6.2 -9.4°
Maximum altitude 19:00:56 81° 298° (WNW) 801 4.2 -9.8°
Drops below altitude 10° 19:06:20 10° 26° (NNE) 2,361 7.0 -10.2°
Sets 19:08:45 0° 28° (NNE) 3,292 7.7 -10.4°
